Regional Weather Roundup
Issued by NWS Columbia, SC

Home | Current Version | Previous Version | Text Only | Print | Product List | Glossary On
Versions: 1 2 3 4 5 6 7 8 9 10 11 12 13 14 15 16 17 18 19 20 21 22 23 24 25 26 27 28 29 30 31 32 33 34 35 36 37 38 39 40 41 42 43 44 45 46 47 48 49 50
000
ASUS42 KCAE 181910
RWRCAE
REGIONAL WEATHER ROUNDUP
NATIONAL WEATHER SERVICE COLUMBIA SC
200 PM EST THU DEC 18 2014

NOTE: "FAIR" INDICATES FEW OR NO CLOUDS BELOW 12,000 FEET WITH NO
SIGNIFICANT WEATHER AND/OR OBSTRUCTIONS TO VISIBILITY.

NOT ALL STATIONS ARE QUALITY CONTROLLED BY THE NATIONAL
WEATHER SERVICE. USE DATA WITH CAUTION...ESPECIALLY
DEWPOINT OBSERVATIONS.

SCZ001>056-GAZ040-063>065-077-182000-
...UPSTATE SOUTH CAROLINA...

CITY           SKY/WX    TMP DP  RH WIND       PRES   REMARKS
ANDERSON       MOSUNNY   56  24  29 VRB3      30.08F
LIBERTY        FAIR      58  30  34 MISG      30.07F
SPARTANBURG    FAIR      55  27  33 W3        30.07F
CLEMSON        PTSUNNY   56  22  26 SW6       30.09F
GREENVILLE     MOSUNNY   57  23  26 VRB6      30.08F
GREENWOOD      MOSUNNY   55  32  41 CALM      30.10F
GREER          MOSUNNY   57  26  30 SW9       30.06F
ROCK HILL      SUNNY     54  26  34 CALM      30.10F
CHESTER        FAIR      59  23  25 SW3       30.10F
LAURENS        FAIR      55  37  50 SE3       30.08F


...CENTRAL SOUTH CAROLINA...

CITY           SKY/WX    TMP DP  RH WIND       PRES   REMARKS
COLUMBIA APT   MOSUNNY   58  31  35 SE7       30.09F
COLUMBIA OWENS MOSUNNY   58  29  33 CALM      30.10F
DARLINGTON     SUNNY     57  27  30 CALM      30.10F
FLORENCE       MOSUNNY   57  26  30 E5        30.09F
MCENTIRE ANGB  MOSUNNY   57  29  34 VRB1      30.10F
ORANGEBURG     MOSUNNY   60  38  43 E6        30.08F
SUMTER SHAW    MOSUNNY   56  29  34 CALM      30.08F
NEWBERRY       FAIR      54  32  43 SW3       30.12F
AIKEN          FAIR      57  37  47 E3        30.11F
BARNWELL       FAIR      61  43  51 CALM      30.09F
CAMDEN         FAIR      55  27  33 CALM      30.10F
LANCASTER      FAIR      55  27  33 SW5       30.10F
WINNSBORO      FAIR      55  32  41 CALM      30.08F


...EASTERN AND COASTAL SOUTH CAROLINA...

CITY           SKY/WX    TMP DP  RH WIND       PRES   REMARKS
MYRTLE BEACH   SUNNY     55  30  38 SE8       30.11F
N MYRTLE BCH   SUNNY     56  34  43 S5        30.09F
CONWAY         FAIR      55  32  41 CALM      30.10F HAZE
MARION         FAIR      55  28  35 CALM      30.10F
HARTSVILLE     FAIR      59  18  20 E5        30.09F
FLORENCE       MOSUNNY   57  26  30 E5        30.09F
DARLINGTON     SUNNY     57  27  30 CALM      30.10F
CHARLESTON APT MOSUNNY   62  41  46 SE5       30.08F
MOUNT PLEASANT LGT RAIN  61  46  59 SE6       30.08F
WALTERBORO     CLEAR     63  36  36 SE5       30.09F
BEAUFORT       MOSUNNY   61  41  47 CALM      30.08F


...EASTERN GEORGIA...

CITY           SKY/WX    TMP DP  RH WIND       PRES   REMARKS
AUGUSTA BUSH F MOSUNNY   60  39  45 CALM      30.09F
AUGUSTA DANIEL MOSUNNY   59  40  49 CALM      30.09F
THOMSON        PTSUNNY   59  41  51 NW3       30.13F
WASHINGTON     FAIR      61  43  51 CALM      30.09F
CLAXTON        FAIR      63  37  39 W5        30.09F
SYLVANIA       CLEAR     61  43  51 CALM      30.09F
STATESBORO     SUNNY     60  41  49 NW5       30.09F
SAVANNAH       MOSUNNY   62  38  40 VRB5      30.09F


...SOUTHERN NORTH CAROLINA...

CITY           SKY/WX    TMP DP  RH WIND       PRES   REMARKS
CHARLOTTE      PTSUNNY   53  21  28 CALM      30.10F
MONROE         SUNNY     54  24  31 VRB3      30.08F
WADESBORO      CLEAR     53  28  37 CALM      30.09F
ROCKINGHAM     CLEAR     52  27  37 CALM      30.10F
RUTHERFORDTON  MOSUNNY   53  23  31 S7        30.08F
ASHEVILLE      CLOUDY    51  26  37 CALM      30.05F

$$


USA.gov is the U.S. government's official web portal to all federal, state and local government web resources and services.